Wind_Gust
8 7 7 6 4 6 7 6 9 10 8 10 10 8 23 8 14 17 18 10 13 10 6 15 20 19 21 23 25 18 13 7 8 16 15 20 21 27 26 27 21 21 23 19 17 17 18 20 22 23 21 21 20 20 20 20 20 20 20 20 20 18 18 19 19 18 17 17 16 14 16 17 16 17 17 17 17 16 16 18 18 18 18 19 19 18 18 18 18 18 19 18 18 17 16 15 15
8 8 7 7 8 4 7 3 9 5 6 8 17 8 22 23 8 18 15 13 9 15 17 25 31 34 31 28 23 25 23 19 17 27 28 25 23 24 25 25 22 27 21 21 18 18 17 19 22 22 23 23 21 21 21 20 20 20 20 19 20 19 17 17 18 18 17 16 15 17 17 17 17 17 17 16 15 16 14 17 18 19 19 18 18 17 17 18 17 18 18 17 16 16 15 14 15
6 10 13 10 6 6 7 6 10 6 7 14 17 17 19 14 8 16 10 14 19 19 22 23 25 22 20 17 20 21 9 15 26 24 28 23 26 17 22 23 22 22 21 18 19 17 16 18 20 21 24 23 22 22 21 20 19 19 19 19 19 19 18 17 17 17 16 15 16 16 17 17 16 17 17 17 16 16 16 15 18 18 18 18 18 17 16 17 16 16 16 16 15 15 14 12 15
5 5 6 6 8 5 6 6 5 9 11 12 15 21 18 11 11 15 13 8 17 12 17 22 26 11 29 30 27 22 18 17 19 23 28 18 25 22 23 22 20 20 18 19 17 16 16 19 20 22 23 23 22 22 20 20 19 19 19 18 19 19 17 16 16 16 16 16 16 15 16 17 17 17 18 18 18 18 16 16 17 18 17 16 16 16 15 15 15 15 15 15 14 13 12 11 13
5 5 4 5 5 6 7 10 9 9 16 15 14 20 11 10 13 14 8 7 7 16 21 25 33 18 24 25 15 20 14 15 15 14 27 25 24 23 22 21 20 21 20 18 18 17 15 21 19 20 21 23 22 21 20 20 20 19 18 18 18 18 16 16 16 16 17 16 15 15 15 15 16 18 18 18 18 17 16 15 15 16 16 15 15 13 12 12 13 13 14 14 13 12 10 10 12
8 7 6 6 9 8 12 8 10 13 16 12 13 21 6 7 7 8 7 5 7 12 15 15 27 20 27 23 16 25 22 19 19 17 30 23 26 23 21 19 19 21 19 18 18 15 16 18 19 19 20 22 21 21 20 20 19 18 18 18 18 18 17 16 16 16 16 15 15 14 13 14 16 17 18 18 17 17 17 15 14 13 14 14 14 13 13 12 12 12 13 14 13 10 9 9 10
7 7 6 4 12 7 9 7 11 11 21 14 29 22 13 17 22 11 8 12 11 19 25 28 29 26 27 21 26 19 15 22 19 23 20 24 22 21 20 18 22 20 18 18 17 17 17 18 18 18 18 20 20 20 20 19 18 18 18 18 17 17 17 16 16 16 14 14 13 13 12 13 15 17 17 17 16 16 15 15 15 14 13 12 14 14 14 14 14 14 14 14 11 8 8 8 10
6 6 6 7 8 9 7 10 13 12 20 17 22 15 13 17 14 8 7 8 13 20 20 17 23 36 17 13 24 15 20 19 25 26 25 24 20 18 20 23 22 19 17 17 16 18 20 17 18 18 18 18 19 18 19 18 17 17 17 17 16 15 16 15 14 14 13 13 13 13 13 15 17 17 18 17 17 16 15 15 15 14 13 13 13 14 14 14 14 13 12 11 9 8 8 9 10
6 8 7 7 8 11 8 11 18 16 24 20 26 23 20 21 19 18 10 7 6 22 22 22 26 33 14 25 23 15 25 24 24 23 23 21 20 20 22 21 22 19 17 17 17 17 16 17 18 18 19 19 19 19 17 16 15 15 15 15 14 12 13 13 13 14 13 13 12 14 15 15 16 16 16 17 17 15 14 14 14 14 13 13 13 13 13 13 13 12 11 10 8 8 9 9 11
8 10 7 11 8 9 10 15 13 22 25 24 23 26 19 19 16 13 13 9 17 15 18 20 28 30 24 26 24 12 22 21 22 21 18 20 21 19 17 17 20 21 17 17 16 17 17 21 18 18 17 18 19 18 17 15 15 15 15 14 13 12 13 12 12 13 13 13 14 13 13 12 12 12 12 15 16 14 14 14 14 14 14 13 12 13 13 13 12 11 10 9 8 9 9 10 10
12 12 7 7 7 11 12 15 17 19 17 21 22 22 21 23 20 21 13 8 22 27 30 32 31 27 25 18 19 12 15 20 21 21 18 20 20 19 19 18 18 19 20 17 17 17 19 17 22 18 17 17 16 16 14 15 16 15 14 13 12 13 13 12 12 13 13 13 14 13 12 12 12 13 13 14 13 12 13 14 14 14 13 12 11 11 12 12 11 10 9 7 7 8 8 8 9
10 10 8 7 9 11 12 15 16 19 18 19 27 17 13 23 17 22 13 20 22 25 23 24 24 34 24 25 16 15 13 14 16 18 20 20 21 19 19 19 20 18 19 18 16 15 16 17 16 20 18 16 15 16 15 17 16 15 14 12 10 11 11 11 12 12 12 14 13 11 10 11 12 11 11 12 12 12 13 13 13 13 13 12 10 10 10 11 11 9 7 7 7 7 7 7 7
15 6 6 9 10 7 16 18 19 18 19 19 22 31 15 18 15 17 12 15 18 20 17 27 30 24 18 16 17 14 16 10 16 18 20 21 19 20 19 20 19 18 18 16 17 15 14 14 15 14 15 18 15 15 15 16 15 13 11 10 10 12 13 13 13 13 14 14 12 11 11 10 11 11 11 11 11 11 11 12 12 12 12 11 10 9 9 9 11 9 7 6 6 6 6 6 7
15 12 7 12 8 10 13 16 13 13 19 22 17 20 12 16 11 15 11 13 9 18 26 31 27 32 25 24 16 15 14 13 19 16 20 20 20 21 20 19 18 19 16 15 16 15 13 13 13 12 13 11 11 14 15 15 14 12 10 10 12 12 12 14 14 15 14 13 13 12 11 11 10 9 9 9 9 9 10 11 11 12 12 10 9 8 8 9 9 9 7 6 6 6 6 7 7
15 9 10 11 12 7 8 16 14 12 21 15 18 6 8 9 10 5 15 21 19 29 23 20 37 32 28 28 18 20 18 18 19 20 21 20 20 20 19 19 18 16 16 16 16 16 16 16 14 12 10 10 9 9 8 13 15 13 11 12 12 12 13 15 15 15 14 13 12 12 11 10 9 8 8 8 8 8 10 9 10 11 10 9 8 8 7 8 8 8 7 6 6 7 7 7 7
15 9 10 10 12 8 18 14 12 13 23 10 12 6 8 5 7 10 9 26 21 16 20 21 11 16 30 18 31 24 22 21 19 22 24 22 19 17 18 16 14 16 17 17 16 15 15 14 13 13 11 11 10 9 9 8 13 15 12 13 13 14 14 14 13 13 14 13 13 11 11 8 8 6 8 6 7 7 8 7 8 9 9 9 7 6 7 6 6 7 7 6 7 7 8 7 8
9 11 9 11 15 10 13 10 7 19 15 10 13 7 7 10 15 19 16 28 27 18 22 19 23 25 23 28 29 27 23 23 21 22 23 20 19 16 15 13 13 12 15 16 15 16 14 13 12 11 10 12 11 9 9 8 13 14 12 14 15 15 13 13 12 12 12 11 10 10 9 7 5 5 5 4 7 4 5 7 8 8 8 7 6 6 6 5 6 6 6 5 7 9 8 9 9
9 15 13 12 13 18 17 16 9 7 16 14 12 6 5 11 14 20 28 29 27 24 27 28 28 25 30 30 28 26 26 25 22 23 20 20 18 17 15 12 13 13 13 12 11 13 14 12 11 10 11 11 10 10 9 8 8 12 8 7 7 10 12 12 10 7 9 6 10 9 7 7 6 6 8 9 6 6 6 7 8 9 8 7 5 5 4 4 5 5 6 6 8 9 10 6 7
13 11 12 20 14 27 9 15 12 13 13 14 14 6 6 7 14 15 30 24 28 28 24 27 29 27 26 26 27 27 24 21 21 21 20 19 18 18 17 14 12 13 11 10 12 15 14 13 11 11 10 10 11 9 9 9 9 8 8 8 8 9 9 9 7 8 5 6 6 7 5 4 4 7 7 9 10 9 8 9 10 10 9 7 6 4 4 5 5 6 7 8 8 8 6 7 8
11 9 14 22 14 17 18 14 18 17 15 23 14 13 7 7 12 20 29 23 31 32 31 23 30 26 25 25 26 24 22 20 20 21 19 19 18 18 16 15 16 12 11 12 13 12 14 14 11 12 11 11 12 11 10 10 9 8 8 8 9 8 8 9 7 7 5 5 6 7 7 6 5 6 7 10 12 9 9 10 12 10 9 8 7 5 5 6 7 7 8 9 8 6 6 7 8
11 15 19 15 13 19 22 19 17 17 15 16 10 11 14 13 11 16 30 23 25 25 31 34 30 30 28 26 25 23 22 20 19 18 18 17 15 14 15 15 14 12 12 13 12 11 10 10 11 13 12 12 11 12 12 11 10 10 9 9 9 9 10 9 7 7 8 9 10 8 8 5 6 4 5 8 6 9 9 8 7 7 6 5 7 7 6 5 3 3 5 7 7 7 6 8 8
8 16 16 17 16 14 14 16 22 14 23 7 9 12 10 13 13 23 20 26 22 28 23 33 33 32 33 28 23 22 21 20 19 18 18 18 17 14 12 12 11 11 13 15 11 12 11 11 13 12 11 10 11 11 11 11 10 10 9 9 9 6 9 8 7 7 7 7 7 7 8 7 7 5 5 3 3 5 8 8 8 8 6 6 6 7 6 5 4 6 6 7 8 7 8 9 10
20 14 11 18 17 18 17 19 18 14 16 7 6 7 8 12 9 18 24 24 18 29 25 27 29 28 27 26 25 21 21 20 19 19 19 17 14 13 13 12 14 14 11 12 11 11 11 11 12 12 11 11 11 10 11 10 11 11 12 14 10 7 9 8 7 7 7 8 7 7 9 9 8 5 5 3 1 2 6 7 8 7 8 7 6 7 8 7 7 8 8 8 8 9 10 10 12
16 23 9 15 13 17 17 18 13 10 8 6 6 12 12 11 13 20 24 22 26 24 25 25 24 23 26 27 20 22 21 19 18 17 18 21 19 15 16 14 12 11 11 11 12 11 11 12 11 11 12 12 11 11 11 11 11 12 12 13 12 9 8 7 7 7 6 7 8 8 7 9 9 7 6 5 6 3 3 4 7 7 7 7 7 9 10 8 8 9 9 8 9 11 12 12 12
18 24 15 15 9 11 16 15 7 14 18 9 11 10 14 12 13 16 22 24 25 25 26 26 24 22 21 23 22 19 19 19 16 15 15 17 18 15 12 13 12 12 13 12 13 13 9 10 11 12 11 12 12 12 11 10 11 11 12 13 12 9 6 8 8 9 8 7 7 9 9 9 8 8 8 7 6 6 4 3 5 7 7 9 8 9 10 8 8 10 9 10 10 11 11 12 14
16 18 17 12 16 14 10 8 6 12 9 8 11 10 16 14 15 22 24 22 26 25 25 25 23 22 20 17 18 20 22 21 20 19 19 16 17 17 13 13 14 13 12 14 14 12 9 8 10 11 11 12 12 12 11 11 11 12 14 15 13 10 8 10 9 10 9 10 9 8 10 10 10 9 8 8 9 8 6 5 4 4 6 7 10 11 10 9 9 8 9 9 11 10 11 13 13
14 20 16 16 17 15 7 15 8 10 9 7 13 9 15 13 15 10 16 25 25 26 26 21 21 21 18 20 22 21 23 20 20 18 17 15 14 17 14 14 13 12 13 14 13 11 9 9 9 10 10 9 11 12 10 10 10 12 13 14 14 13 12 10 10 9 8 9 7 7 7 6 6 7 8 8 7 6 7 6 6 5 7 5 8 12 10 10 9 9 9 10 10 10 10 11 10
14 12 15 17 14 17 14 9 8 7 10 10 12 9 15 14 14 22 17 24 27 29 25 23 21 21 22 22 20 19 19 18 18 18 19 16 16 16 14 16 14 12 14 14 12 12 12 11 10 9 10 10 11 10 11 12 11 12 12 12 12 13 12 9 10 9 8 7 8 8 7 8 7 7 8 9 8 7 7 8 9 8 10 8 6 10 12 9 9 10 10 10 10 9 12 12 10
13 13 15 13 19 23 10 11 8 9 12 8 11 9 11 11 15 23 22 27 29 30 28 24 24 24 22 21 20 19 19 15 15 16 13 13 12 13 15 13 16 13 9 13 16 14 12 13 11 9 9 8 10 11 11 9 9 10 11 11 11 13 13 10 8 7 8 9 9 10 10 9 9 11 12 12 12 11 10 9 8 11 11 8 7 8 8 7 5 8 12 10 12 10 11 13 14
11 10 10 9 8 16 17 10 7 8 8 11 12 14 14 12 15 21 24 27 28 28 28 27 26 25 23 19 18 17 15 17 16 16 15 15 14 13 15 12 13 13 14 13 13 13 11 10 11 10 9 11 9 8 8 9 9 10 10 11 10 9 9 10 10 10 8 8 8 9 11 10 9 8 9 10 12 12 11 11 10 10 13 9 8 8 7 6 7 7 12 14 12 12 17 20 23
13 9 9 12 8 12 9 15 6 10 11 14 10 13 14 11 18 25 27 26 27 27 26 25 23 23 22 21 19 19 16 15 18 15 16 20 18 15 13 12 13 15 16 14 13 13 13 11 12 10 10 9 9 8 9 8 8 9 9 9 8 9 10 10 10 8 7 7 6 7 8 8 8 8 10 11 11 10 10 9 9 11 12 11 9 8 8 7 5 8 7 19 17 19 18 20 21
12 13 14 7 12 11 11 18 12 17 12 15 12 13 16 13 18 25 24 23 25 27 26 25 22 20 20 20 22 21 20 21 22 20 20 16 15 15 13 12 13 14 15 14 13 13 13 10 10 8 8 7 6 6 5 6 7 7 8 9 9 8 8 8 7 8 7 7 7 6 6 6 7 8 9 10 10 9 9 10 10 9 11 12 10 8 7 8 7 6 7 15 10 14 17 19 15
13 14 8 10 11 11 10 15 14 16 12 14 18 16 9 11 21 26 24 24 30 29 27 24 24 23 22 22 21 20 21 21 23 22 22 15 12 12 15 10 11 11 14 14 13 12 11 9 10 10 10 9 6 4 3 5 7 7 8 7 8 5 6 7 7 7 7 7 7 6 6 7 7 8 8 10 11 10 10 10 9 9 9 10 10 9 9 8 9 9 9 14 15 19 15 14 17
15 11 15 8 9 12 18 9 18 18 14 11 18 21 9 11 21 30 24 30 29 30 26 24 23 22 22 22 20 20 19 18 19 15 13 11 13 16 13 13 13 10 11 11 10 12 11 8 8 8 8 6 6 7 6 6 7 5 5 5 4 6 5 6 9 8 9 9 8 8 7 8 7 7 7 8 9 10 9 8 8 9 10 13 14 13 11 8 8 8 9 6 8 11 10 11 14
11 8 11 11 6 9 16 17 17 17 20 11 16 19 16 11 15 25 28 31 30 28 28 25 24 24 23 21 21 19 18 18 16 13 12 15 14 13 12 13 10 11 10 10 9 9 10 10 9 8 7 7 6 7 6 6 5 4 4 4 3 5 6 6 6 8 9 8 9 7 7 8 8 6 6 6 9 8 8 8 8 8 10 12 12 12 10 9 8 8 10 9 6 9 9 12 15
14 10 14 9 11 13 22 16 18 23 19 18 13 23 24 10 12 14 26 30 30 25 22 24 22 23 23 22 21 19 18 16 11 10 12 14 12 12 11 12 13 13 12 11 10 9 10 11 9 8 6 6 6 5 6 6 3 6 8 4 6 7 8 7 6 9 8 9 9 9 8 8 6 7 7 7 8 8 7 8 8 10 10 10 12 11 11 10 11 10 11 11 9 7 9 8 9
14 12 13 19 19 19 20 14 24 24 20 21 17 16 14 8 14 20 20 27 29 26 22 22 20 22 22 21 20 19 18 17 12 14 13 14 14 13 13 15 15 12 10 11 11 8 7 9 10 9 5 5 6 6 4 4 4 4 3 5 8 7 7 6 7 7 8 9 8 10 9 9 9 8 7 7 8 9 9 7 8 9 9 10 10 11 9 8 8 8 8 10 11 9 10 9 8
22 14 13 19 22 22 24 16 28 27 20 17 14 13 12 13 10 26 23 29 29 28 23 23 22 20 21 23 21 21 18 18 18 15 13 12 13 13 14 14 12 14 11 11 10 8 7 6 8 7 5 4 5 5 4 4 4 6 6 8 8 7 7 6 9 8 10 10 9 9 10 11 11 11 10 9 9 10 9 10 10 10 11 10 9 8 6 7 8 9 9 9 8 12 13 14 12
20 18 11 7 20 22 22 15 32 26 21 19 18 15 13 12 18 24 25 25 27 28 28 28 28 23 24 22 23 22 20 18 17 15 14 15 17 16 15 14 12 10 11 10 9 9 8 8 7 5 4 4 3 3 2 3 5 6 6 7 6 7 7 8 9 8 8 10 10 11 11 10 11 11 10 10 10 10 11 10 11 11 10 11 11 11 9 9 11 13 11 11 8 7 8 11 15
18 14 14 20 10 18 19 9 33 24 31 19 20 17 10 16 16 20 19 29 19 19 19 18 23 28 24 23 23 25 23 21 17 17 18 17 17 16 15 13 12 11 11 10 9 9 8 7 6 5 5 4 3 3 4 6 6 6 5 5 5 5 7 5 4 4 3 5 8 9 10 10 11 11 10 9 9 10 11 12 11 10 11 11 12 12 12 12 11 11 14 13 10 8 12 10 9
19 17 15 15 20 20 20 17 34 25 24 12 15 12 11 11 22 25 21 28 26 23 26 25 21 20 22 22 21 20 21 21 21 19 17 17 17 16 14 11 12 12 10 9 8 6 7 6 5 7 7 8 9 9 8 6 5 5 5 7 5 7 6 7 7 9 6 7 6 7 12 8 9 10 9 10 11 11 10 11 10 13 13 12 11 11 13 16 13 13 13 13 13 15 12 12 9
23 18 18 19 20 21 12 19 31 23 25 10 23 16 12 8 20 26 23 29 26 21 27 21 20 22 22 22 21 20 19 16 19 17 18 18 20 17 15 13 12 11 12 10 10 10 10 11 10 11 11 11 9 7 8 8 5 3 3 5 8 6 9 9 8 11 10 9 11 9 7 8 9 8 8 9 10 10 9 10 11 11 11 10 12 13 12 12 15 16 14 16 16 14 13 10 14
20 27 18 24 23 25 17 14 27 24 29 20 19 24 18 8 19 20 25 28 24 20 24 19 19 18 19 19 19 19 18 19 19 18 16 18 19 19 14 14 13 13 10 10 12 13 14 13 12 12 10 11 11 11 12 9 8 7 4 4 4 7 8 9 7 8 9 10 8 8 10 9 9 10 9 8 9 9 7 9 10 10 10 11 11 13 14 15 13 13 11 13 16 14 10 14 13
35 22 13 17 21 23 24 17 17 21 14 11 12 26 28 22 16 23 28 29 25 23 19 18 17 17 18 18 16 15 17 18 19 17 16 16 18 19 16 12 14 11 9 11 13 12 12 11 12 11 10 11 12 13 12 13 11 10 10 9 9 12 10 10 11 11 9 7 9 10 9 8 8 9 11 10 9 8 8 8 11 13 12 11 12 13 14 14 13 11 14 15 11 12 14 16 14
30 16 15 19 20 24 20 10 16 21 14 10 15 15 27 21 20 21 32 30 26 26 24 21 20 18 18 18 18 18 16 18 19 17 16 16 19 16 15 13 13 12 12 13 10 11 10 10 10 11 13 12 12 13 13 14 12 11 11 12 12 12 12 13 12 11 12 11 10 10 11 10 7 8 9 9 8 8 7 10 9 9 11 12 13 14 14 14 14 13 12 13 14 14 15 14 13
17 16 16 21 17 17 11 17 18 25 21 13 17 23 27 14 23 20 19 32 32 31 24 21 21 20 19 18 18 18 16 16 19 18 16 15 17 15 14 12 15 12 10 10 11 10 9 9 10 11 11 11 12 13 14 14 13 13 14 13 14 14 14 13 12 14 11 10 10 10 9 9 10 11 9 8 7 7 8 8 10 13 11 10 13 14 14 15 14 13 14 15 13 14 14 15 18
7 20 21 20 21 11 8 15 16 23 21 20 20 22 25 24 29 29 29 36 33 27 20 18 20 20 20 17 18 18 16 15 18 17 16 16 13 14 15 15 13 11 11 11 12 11 9 10 11 15 12 11 11 12 12 12 12 13 13 12 13 14 14 14 15 15 13 12 12 11 11 10 9 10 8 9 9 9 8 7 6 6 8 11 12 12 14 13 12 10 10 10 12 15 15 15 14
13 25 23 17 19 5 7 12 11 19 24 18 24 23 25 30 26 21 15 29 38 36 28 26 23 20 19 17 19 18 16 16 17 18 17 16 14 14 15 15 12 11 13 12 10 10 12 12 14 15 13 11 10 11 11 11 11 12 12 13 14 13 13 13 13 13 12 11 11 12 10 9 11 12 10 10 9 9 9 8 6 8 10 10 12 14 13 11 12 11 12 14 14 13 12 14 15
23 15 10 17 15 18 19 14 19 19 31 15 21 20 21 14 11 10 23 34 27 32 33 31 28 24 22 19 19 17 17 16 16 15 15 13 13 14 16 14 10 11 10 7 8 11 11 12 12 13 12 11 10 9 10 9 10 11 11 12 12 12 12 11 11 12 11 11 12 12 12 12 11 10 10 11 11 11 11 10 8 8 9 10 11 12 13 11 11 12 11 11 12 14 16 16 18
27 29 20 22 24 21 18 19 16 14 13 7 22 15 16 6 8 15 27 26 21 25 25 26 27 26 24 23 19 18 16 15 15 15 16 15 13 13 14 15 12 9 7 7 6 8 9 10 10 13 12 12 11 9 9 7 8 8 8 9 8 8 9 9 10 11 11 12 11 11 10 10 10 10 11 10 9 10 11 10 8 9 10 9 10 13 14 11 11 12 12 13 14 15 14 15 17
32 20 19 16 18 26 21 20 29 22 15 11 12 30 16 13 8 8 18 20 24 25 29 26 24 22 22 20 19 18 16 13 14 15 16 16 14 13 13 14 10 8 6 5 4 8 8 8 9 11 11 9 9 8 9 9 7 7 9 9 10 9 8 9 9 11 13 14 13 12 12 12 12 13 12 11 10 8 10 9 7 9 10 10 10 9 11 12 12 11 13 13 14 14 16 17 17
23 17 14 15 20 17 15 18 18 15 16 16 15 14 7 11 8 16 23 24 23 26 27 26 24 21 20 23 20 18 16 16 13 14 15 13 12 11 11 11 8 4 4 4 10 10 8 8 10 10 9 5 5 6 6 6 9 8 7 7 7 7 9 11 13 13 14 13 14 14 14 13 14 14 14 14 13 11 11 10 9 10 12 11 11 10 11 12 12 13 16 15 16 13 15 16 17
22 20 28 26 13 13 7 7 5 11 18 11 8 15 13 13 16 15 24 25 23 24 24 25 23 21 19 19 18 17 16 16 14 14 13 13 11 10 11 11 7 6 5 5 7 8 8 8 10 7 4 3 3 2 3 5 5 5 6 7 7 8 8 14 14 14 15 14 14 14 14 14 14 15 16 15 16 16 14 11 11 11 11 11 10 10 10 10 10 11 14 14 15 13 13 15 16
19 30 23 8 8 13 15 14 9 15 20 14 9 15 18 19 17 11 18 23 20 20 21 22 20 18 20 18 17 17 17 16 15 15 13 13 12 12 11 10 8 6 7 9 11 9 8 7 6 5 2 2 1 2 3 4 5 6 7 8 8 9 9 11 11 13 13 15 16 16 15 16 16 16 16 16 16 16 16 16 14 12 10 10 10 10 9 10 11 12 13 14 14 13 13 14 15
17 25 13 26 20 19 11 16 14 19 17 14 11 16 18 15 21 24 20 25 20 21 22 22 21 20 21 18 18 16 16 16 15 14 14 12 12 12 11 9 6 8 9 10 10 9 8 6 5 4 4 3 2 3 4 8 9 10 11 11 11 11 11 11 10 9 10 14 16 16 17 16 16 17 18 18 17 17 17 18 18 16 13 10 10 10 10 10 10 12 12 13 14 13 14 14 13
10 10 22 16 12 13 16 25 13 23 11 12 11 17 18 14 17 22 24 26 28 25 22 21 23 19 20 19 17 17 15 15 14 13 12 12 10 10 9 7 10 10 10 10 9 9 10 5 6 8 11 10 12 9 7 10 10 12 14 13 12 12 12 11 12 12 13 14 14 15 16 15 17 16 17 17 18 18 17 19 18 18 19 16 12 12 10 11 11 11 12 14 15 14 15 17 15
17 13 15 25 22 11 15 12 15 17 23 18 20 18 14 7 19 22 20 20 24 26 24 22 21 18 19 18 18 16 16 14 14 13 14 11 9 8 9 10 11 9 8 9 10 10 7 8 11 13 14 12 11 9 9 10 12 14 13 13 15 14 14 14 14 14 15 17 17 17 16 16 15 17 18 19 20 20 19 19 19 20 25 27 24 24 23 19 13 11 12 13 14 13 14 14 14
12 17 14 13 20 11 19 15 11 14 23 23 22 20 8 6 9 23 24 20 22 21 23 23 21 19 18 19 17 17 16 13 12 10 8 9 10 10 13 13 9 11 11 11 9 8 9 10 10 12 13 12 11 13 11 12 13 15 15 15 14 14 16 18 15 15 19 19 19 18 18 18 17 18 18 20 22 21 18 21 20 20 25 29 26 24 24 24 22 22 19 14 13 13 14 15 14
Wind_Speed
4 4 4 4 1 1 2 1 0 2 1 4 2 2 6 1 5 5 8 5 4 1 1 3 3 1 4 7 14 11 7 2 2 7 3 2 5 10 13 13 11 12 13 11 9 9 10 15 16 17 16 15 16 17 16 16 16 15 14 14 14 14 14 15 15 15 14 13 13 12 13 13 13 13 13 14 14 13 13 14 14 14 15 15 15 14 14 14 13 13 13 12 11 9 8 9 12
2 4 4 4 1 1 1 0 2 1 2 2 7 0 7 0 5 9 10 4 1 1 4 13 15 18 20 19 15 13 14 9 5 6 6 8 9 8 11 13 13 15 11 10 9 9 9 12 17 16 17 17 17 17 16 16 15 15 14 14 13 13 13 14 14 14 13 13 13 14 13 13 13 13 13 13 12 13 12 14 14 15 14 14 14 14 13 14 13 13 12 10 9 7 7 9 12
3 5 5 6 2 2 1 1 1 1 3 7 6 6 2 2 5 10 6 7 11 9 12 12 10 7 7 3 9 5 2 6 14 11 8 10 12 5 11 10 10 12 13 9 10 9 8 11 16 16 18 17 17 16 15 15 15 15 14 13 13 12 12 12 13 13 12 12 13 13 14 13 13 13 13 13 13 13 13 12 15 14 14 14 13 13 12 12 12 11 10 9 8 7 6 9 11
2 2 3 2 1 2 1 1 2 4 4 6 5 7 4 4 7 10 8 4 9 8 5 3 4 4 7 13 10 15 9 5 5 11 8 7 6 10 9 11 10 10 10 10 10 9 8 13 16 17 18 18 17 15 15 15 14 14 13 13 13 12 10 11 13 13 12 13 13 12 13 14 14 14 14 14 15 14 13 12 13 14 13 12 12 12 12 11 11 10 9 8 7 6 6 9 10
3 1 1 2 2 1 1 3 3 4 7 5 5 2 3 4 8 9 5 5 4 4 9 8 7 6 9 10 2 2 7 9 8 5 6 5 10 12 12 11 10 10 10 10 10 8 9 16 16 16 18 18 16 15 14 14 14 13 13 13 13 12 11 11 11 13 13 12 11 11 12 13 13 14 14 15 13 13 13 12 12 12 12 12 11 10 9 9 10 9 8 7 6 6 6 7 9
1 2 1 2 0 1 1 1 3 5 7 3 2 2 1 4 3 5 5 4 5 5 6 1 8 3 5 4 2 5 12 7 8 6 9 8 12 14 13 10 10 10 10 9 9 8 8 14 15 16 16 17 16 15 14 14 14 13 12 13 13 12 12 11 12 12 12 12 11 10 11 12 13 13 14 14 13 13 13 12 11 11 11 11 10 10 10 9 9 8 8 7 7 6 6 7 8
1 3 1 1 2 1 4 2 6 5 10 5 8 4 4 11 10 7 5 7 4 7 4 12 16 13 10 3 8 5 7 11 7 9 7 13 14 13 13 10 11 11 10 10 8 9 11 14 15 15 15 15 16 15 14 14 13 12 13 12 12 13 12 11 11 12 11 11 10 10 9 11 13 13 13 13 12 12 12 12 12 11 10 10 10 10 10 10 9 8 7 7 7 6 5 6 7
0 2 1 1 1 1 1 4 6 4 7 9 7 7 9 11 9 4 5 5 5 7 3 7 5 14 4 5 6 5 7 3 12 12 14 14 13 11 12 12 12 11 11 10 8 8 15 14 15 15 15 15 15 14 14 13 12 12 12 12 12 11 12 12 11 11 10 11 11 10 11 12 12 12 12 12 12 12 11 11 12 11 11 10 10 10 10 9 8 6 6 6 6 6 6 7 7
2 1 1 3 1 0 2 5 6 4 9 3 7 8 10 11 10 9 8 1 3 5 9 10 11 13 4 10 8 7 8 12 14 15 14 14 13 12 10 12 13 11 11 10 9 9 9 14 15 15 16 16 16 15 14 13 12 12 12 12 11 10 11 11 11 11 11 10 10 11 12 12 12 11 11 11 11 11 11 11 11 11 10 10 10 10 9 8 7 6 6 5 6 6 6 7 8
1 1 1 2 3 3 2 7 4 5 6 4 6 11 10 10 9 9 10 1 9 5 3 1 10 16 12 15 9 6 7 13 14 13 12 13 14 11 11 11 13 14 11 10 10 10 9 17 15 15 14 15 15 15 14 12 12 12 12 12 11 10 11 10 10 11 11 11 11 11 11 10 10 10 9 11 11 10 11 11 11 11 10 10 9 9 9 7 6 6 5 5 6 6 7 7 7
1 0 1 0 0 3 6 7 6 9 9 7 9 12 14 14 12 9 9 5 13 10 8 17 15 15 13 7 4 2 8 11 13 13 12 13 12 13 11 10 11 13 13 12 11 10 11 10 17 15 14 14 13 13 12 12 13 12 12 11 10 11 10 10 10 11 11 11 11 10 10 10 10 10 11 11 10 10 11 11 11 11 10 9 8 8 8 6 6 6 5 5 5 6 6 6 7
1 0 0 1 3 5 5 3 6 9 10 7 11 11 6 13 10 9 8 13 9 14 11 6 7 16 13 7 5 6 7 8 10 12 13 13 12 12 12 9 11 10 13 12 10 8 9 10 10 14 15 13 13 13 13 14 13 12 11 10 8 9 9 9 10 10 10 11 10 8 8 9 9 9 9 9 10 10 10 11 10 10 10 9 8 7 8 6 5 5 4 4 5 6 5 5 6
2 1 1 2 3 3 4 4 9 7 6 9 10 7 7 12 9 13 6 10 12 11 3 7 19 9 7 6 4 6 8 7 10 12 12 13 11 10 10 10 10 11 10 10 9 8 9 8 8 8 10 15 12 13 13 13 12 11 9 8 9 10 11 11 10 11 12 11 9 8 8 8 8 8 9 9 9 9 9 10 10 10 10 9 8 7 6 6 5 4 4 4 5 5 4 4 5
3 4 3 3 0 2 3 4 4 4 8 12 8 12 4 7 7 9 7 8 5 10 5 17 12 16 13 9 6 7 7 8 11 11 11 12 11 11 11 9 10 10 9 8 8 7 7 7 6 6 7 7 7 10 12 13 12 10 8 9 10 10 10 11 12 12 11 10 10 9 8 8 8 7 7 7 7 7 9 9 9 9 9 8 7 6 6 5 4 3 3 4 4 4 4 4 4
5 2 1 2 3 1 3 3 2 2 9 9 8 3 2 2 2 2 11 12 7 5 11 3 12 13 10 15 7 9 10 11 12 13 13 12 12 11 11 9 9 8 8 8 7 7 7 7 6 5 6 5 6 5 4 9 12 10 9 10 10 10 11 12 12 12 12 10 9 9 8 8 7 7 7 7 6 6 8 8 8 9 8 7 6 6 5 5 3 2 3 4 5 5 5 4 4
4 2 1 1 4 4 5 2 1 4 9 4 7 5 2 4 4 3 2 12 6 9 4 5 5 2 13 9 19 15 14 14 13 14 14 13 11 9 9 8 8 7 7 7 6 5 6 6 5 6 6 6 5 5 5 4 10 12 10 11 11 11 12 11 11 11 11 10 10 9 8 5 5 4 6 4 5 5 6 5 6 7 7 7 5 4 5 4 2 1 2 4 5 6 6 5 5
0 2 2 2 7 5 4 3 4 4 6 5 8 5 0 5 6 7 4 15 16 4 5 4 3 7 14 7 18 18 16 14 14 15 14 10 9 7 7 7 7 6 6 6 5 5 5 6 6 6 6 6 6 6 5 5 8 11 9 11 12 12 10 10 10 10 10 9 8 8 7 4 3 3 3 3 5 3 5 6 6 6 6 6 5 4 4 3 2 1 2 3 6 7 7 7 6
1 3 4 6 6 8 2 3 2 3 6 7 9 3 1 8 5 4 13 14 16 14 12 10 14 13 15 14 16 16 16 16 15 15 11 10 8 8 7 6 7 7 6 5 5 6 6 6 7 6 6 7 6 5 4 4 4 7 4 4 4 7 8 8 6 4 5 3 8 6 4 4 3 3 3 5 3 4 4 6 7 7 6 5 4 3 2 2 2 2 2 4 6 7 8 4 4
4 2 4 10 6 4 1 1 7 4 8 9 10 4 2 3 9 2 9 9 16 16 11 14 17 16 16 15 15 16 15 14 14 14 14 12 10 10 9 7 7 7 6 5 6 8 6 6 6 6 6 6 7 6 5 5 5 5 5 5 5 7 6 5 4 4 2 3 4 4 3 1 1 2 3 3 3 6 5 8 8 8 7 5 4 3 2 2 2 2 3 5 6 6 4 4 4
5 4 6 10 4 3 4 3 8 6 8 14 10 7 3 3 4 2 12 10 17 18 13 12 17 16 15 15 14 13 14 13 14 14 13 11 10 10 10 9 8 6 6 7 7 6 7 6 6 6 7 7 7 6 5 5 5 5 5 5 5 5 4 4 4 4 4 3 4 4 4 2 1 1 4 6 8 3 4 8 10 8 7 6 6 3 1 0 3 3 3 5 4 2 3 4 4
2 4 8 4 3 5 4 1 5 8 7 9 7 3 9 9 2 7 16 12 8 11 19 23 20 20 18 16 15 13 13 13 12 12 12 10 8 6 7 8 8 7 7 7 6 6 6 6 6 6 6 6 6 6 5 5 5 5 5 5 5 4 4 3 2 1 2 3 4 3 3 3 2 1 1 3 1 3 2 2 4 4 4 3 5 4 3 1 0 0 1 3 3 2 3 4 3
1 6 7 5 5 6 6 6 6 7 13 5 5 7 3 4 6 14 12 15 10 14 14 22 22 22 22 18 14 13 13 14 13 12 12 11 10 9 7 6 6 6 7 8 6 6 6 7 7 6 6 6 6 6 5 4 5 5 5 5 4 4 4 4 3 3 2 3 2 2 2 2 2 1 1 2 0 2 3 4 4 4 4 3 3 4 4 3 2 2 2 2 4 2 3 4 4
5 7 5 6 7 8 4 3 6 6 5 4 3 4 1 4 4 1 9 15 9 5 12 16 20 19 18 17 16 14 14 14 13 13 13 11 10 8 7 6 8 8 6 7 6 5 6 7 7 6 6 6 7 6 4 4 4 3 3 4 5 4 4 3 2 2 2 2 3 3 4 2 2 2 2 1 0 0 3 3 4 4 4 4 3 4 3 3 3 4 4 3 3 3 4 4 5
7 9 5 7 7 10 9 9 10 6 6 3 3 4 6 3 7 1 6 4 12 12 12 13 15 16 18 17 14 15 14 13 12 12 11 11 11 10 10 9 6 5 7 6 5 5 6 8 7 7 6 6 6 6 5 3 3 4 4 4 4 5 4 3 2 2 1 1 2 4 3 3 4 4 3 2 3 0 2 2 2 2 3 3 3 4 4 4 4 4 3 3 3 4 5 5 5
7 10 10 7 4 6 6 7 5 9 12 3 5 6 2 5 5 5 8 14 15 16 14 14 15 15 13 15 15 13 12 10 10 9 7 5 6 7 6 7 6 7 8 6 5 6 5 6 7 8 7 7 7 7 5 3 3 4 4 4 4 4 3 4 4 2 2 2 2 4 5 5 4 3 4 4 2 3 3 3 2 2 2 4 4 4 4 4 4 4 4 4 4 4 5 5 5
5 10 9 7 6 6 6 4 4 9 4 4 4 6 4 5 11 10 11 12 15 17 16 15 14 14 13 11 12 12 11 10 10 10 9 6 7 9 7 7 7 7 6 6 6 5 4 5 6 7 6 7 7 7 5 5 4 5 5 5 4 5 4 3 3 3 4 4 3 3 3 4 4 4 4 4 4 3 2 3 2 2 2 3 4 5 5 5 5 4 4 4 4 4 5 5 4
3 6 11 10 12 8 4 4 3 6 3 2 3 6 5 4 7 4 2 15 16 17 16 14 13 13 11 11 10 10 12 11 11 9 9 7 6 7 6 7 6 6 7 6 5 4 4 5 5 6 5 6 6 7 6 5 4 3 4 4 4 5 4 4 4 5 4 4 4 2 2 2 2 3 4 4 4 4 4 2 3 2 3 3 4 5 3 5 5 5 5 5 5 5 5 5 4
5 7 5 6 8 7 4 2 3 0 5 4 2 5 2 3 7 11 9 10 17 19 16 15 13 12 11 11 10 9 10 10 10 11 12 10 6 6 6 7 6 7 7 6 4 4 5 5 6 5 5 6 6 6 5 5 5 5 4 4 5 4 4 5 5 5 4 4 2 2 2 3 4 4 3 4 4 4 4 4 2 3 5 3 3 3 2 2 3 4 4 3 4 4 5 5 3
6 6 8 8 7 8 6 5 4 5 4 4 6 0 7 2 10 15 14 12 13 18 16 15 16 14 13 11 10 9 9 9 8 6 7 6 6 6 4 6 8 7 4 6 6 6 6 5 6 5 5 5 6 6 6 5 4 4 3 4 3 2 3 3 3 3 2 3 2 2 3 3 3 3 4 3 3 4 3 3 4 5 5 4 4 3 2 2 1 1 2 1 2 1 1 3 3
3 1 4 5 4 5 11 3 1 4 3 6 6 3 7 2 9 13 14 14 12 14 15 16 15 14 13 11 10 9 7 10 8 6 6 5 6 7 3 6 9 8 8 6 7 7 5 4 5 5 4 5 5 5 4 4 4 3 2 3 3 1 0 2 4 4 3 2 2 3 3 4 4 4 4 4 4 4 4 4 5 5 4 4 3 2 4 3 3 1 1 2 2 1 1 1 2
3 3 2 4 2 4 5 4 4 6 3 8 5 3 7 3 5 12 14 17 16 14 14 14 14 14 13 12 11 11 11 9 10 8 10 10 8 6 7 7 8 10 8 8 8 9 9 7 6 5 5 4 4 4 4 4 3 2 2 3 3 1 1 3 3 1 2 2 3 4 4 4 4 4 3 4 3 3 4 4 5 5 4 4 4 4 4 4 3 4 2 3 1 0 1 1 1
1 3 5 2 6 5 5 3 7 6 2 6 7 4 8 4 9 14 12 14 14 15 12 12 13 12 12 12 13 13 11 9 10 6 6 7 5 3 1 2 5 6 7 7 8 8 8 7 7 5 5 4 3 3 3 3 3 3 2 3 2 1 1 2 3 3 2 3 3 3 4 4 3 3 3 3 3 3 4 5 6 4 4 4 4 4 4 4 4 3 2 2 3 3 1 1 4
1 5 4 3 2 4 2 3 6 9 4 1 9 6 1 2 8 13 14 14 16 15 12 11 14 15 14 12 12 11 11 9 8 8 7 4 3 3 2 2 5 7 6 7 8 8 7 6 6 6 6 4 3 3 2 2 3 3 3 2 2 2 2 3 4 4 3 4 4 4 3 3 3 4 4 4 4 4 4 5 5 5 5 5 5 5 5 4 4 3 2 2 3 4 4 3 4
4 0 5 4 5 2 4 4 2 5 6 3 4 5 4 1 14 12 14 17 16 15 13 13 13 13 14 13 11 11 11 9 10 9 8 5 4 4 2 3 2 4 6 6 6 8 7 5 5 5 4 4 3 4 3 3 3 2 2 2 2 3 3 3 4 3 4 4 2 4 3 3 3 4 4 4 5 5 5 5 5 3 2 5 5 5 4 3 3 4 4 4 4 5 4 5 6
3 1 2 3 0 4 7 4 3 3 6 7 4 5 8 2 11 16 16 18 18 16 16 15 15 15 14 13 12 12 10 10 9 6 7 6 6 5 4 4 2 3 4 5 5 6 6 6 5 5 5 5 4 3 2 1 1 0 0 0 2 3 4 3 3 4 4 4 4 4 3 4 4 3 4 4 5 5 5 5 4 4 4 4 6 6 5 4 5 5 6 5 4 4 4 5 6
6 5 5 4 5 3 4 6 4 8 5 9 5 7 9 5 8 7 12 16 17 14 12 12 12 13 13 13 11 10 11 10 6 6 8 7 7 6 4 4 4 3 3 5 5 5 6 6 5 5 4 4 4 3 3 2 1 0 1 2 4 4 5 3 3 5 5 5 5 5 4 4 4 4 4 4 4 4 5 5 5 5 5 5 7 7 7 6 7 6 7 7 6 3 3 4 3
4 5 4 6 6 4 3 5 3 6 4 10 7 8 7 6 10 13 11 10 11 14 13 13 12 12 12 12 11 11 11 9 7 9 8 9 7 6 6 5 6 6 4 4 4 5 4 5 6 6 3 4 4 4 2 2 1 1 1 3 4 4 3 3 4 4 5 5 5 5 5 5 4 4 4 4 5 5 5 5 5 5 6 6 6 7 6 5 5 5 5 5 7 5 3 3 2
8 5 4 7 7 7 6 7 5 6 6 7 6 6 2 4 7 16 8 12 14 14 14 14 14 12 11 13 13 11 11 10 12 10 9 7 7 7 5 5 4 7 3 3 3 3 4 4 5 4 4 3 3 2 2 1 2 2 3 4 4 5 4 3 5 5 5 5 5 4 4 4 4 5 5 4 5 5 6 5 5 6 5 5 6 5 4 5 4 5 5 5 4 7 5 6 4
8 8 6 4 7 7 6 5 5 6 8 8 5 6 4 1 12 13 16 13 11 11 17 17 18 14 12 12 13 12 10 10 10 9 9 9 8 6 5 5 4 3 3 3 2 3 4 3 4 4 3 3 2 2 1 1 2 3 3 3 4 3 4 4 4 4 3 4 5 5 5 5 5 6 5 5 5 5 6 6 6 6 5 6 7 7 5 5 6 7 7 6 4 2 4 6 8
8 5 6 9 4 3 5 3 5 6 7 6 6 8 3 8 7 9 6 10 6 5 7 9 9 15 15 14 12 12 12 10 11 11 12 10 9 8 7 6 5 4 3 2 2 3 3 3 3 2 1 0 0 0 1 3 3 3 3 3 3 3 4 2 2 3 2 2 4 5 5 6 6 6 5 5 5 6 6 7 6 4 5 4 5 6 7 7 7 7 6 6 4 4 4 5 6
10 8 6 6 9 5 3 2 5 5 13 3 7 7 6 3 9 4 7 7 12 10 12 12 9 10 12 13 11 11 12 12 13 12 11 11 10 9 7 6 6 6 4 3 3 2 2 2 2 1 0 2 2 2 2 2 1 2 2 3 2 3 2 3 3 4 2 2 3 4 7 5 6 6 5 6 6 7 6 6 6 6 6 6 5 5 7 9 5 5 6 6 7 8 7 5 5
10 10 11 10 7 4 3 3 1 2 9 4 11 3 3 5 4 12 9 9 9 8 14 12 13 14 13 14 12 11 10 10 12 11 11 12 12 9 8 8 8 7 7 6 6 6 6 7 7 7 7 6 6 5 4 3 3 2 1 3 4 3 4 5 5 4 4 4 4 4 2 4 5 4 5 5 4 3 6 6 7 6 6 5 5 6 6 5 7 10 7 8 8 8 7 5 5
8 11 10 11 9 4 2 3 1 5 7 8 3 10 2 1 2 5 10 14 12 9 11 11 12 11 10 11 9 9 11 12 10 11 11 11 11 11 8 8 8 8 6 5 7 8 9 8 8 7 6 5 5 5 6 6 5 5 3 2 1 2 2 3 3 4 4 4 3 4 4 4 3 4 4 3 4 4 5 6 6 6 4 2 4 6 7 8 7 8 6 6 8 8 6 7 8
13 3 8 10 8 6 4 4 4 4 4 1 4 6 10 4 5 3 12 17 15 13 11 11 9 11 11 8 9 10 10 11 11 11 11 10 9 11 10 8 9 7 5 7 8 8 8 7 8 7 6 6 5 5 7 7 6 5 5 5 5 7 6 6 6 5 5 4 5 6 6 5 4 4 5 6 4 4 4 5 5 5 5 6 6 7 8 8 7 6 7 9 7 6 7 8 8
7 4 6 5 6 6 5 5 4 5 2 4 4 6 7 2 5 7 13 17 14 15 14 14 13 12 11 10 9 9 10 12 11 10 10 10 11 11 10 9 8 7 5 7 6 6 6 5 6 6 7 6 6 7 7 7 6 5 5 5 6 5 5 5 5 5 6 6 6 6 6 5 4 2 2 3 4 5 5 5 5 5 4 5 6 7 7 8 9 8 7 6 6 7 7 8 5
5 5 3 3 3 2 6 7 7 3 3 6 8 9 8 3 5 8 7 14 17 14 13 11 12 13 12 11 11 10 9 10 12 11 10 9 11 10 9 7 9 5 5 6 4 5 5 4 6 7 7 6 6 7 7 7 7 6 8 8 8 7 6 6 6 7 6 5 6 7 6 5 4 4 4 3 3 3 3 4 5 5 5 6 6 7 8 8 9 7 7 8 8 7 5 5 6
2 4 5 2 2 4 3 5 5 1 4 8 11 10 12 5 10 11 15 13 14 12 11 11 11 12 11 10 11 10 10 9 11 11 9 10 9 9 9 9 8 7 5 5 6 7 6 6 7 10 8 6 7 7 6 7 6 7 7 7 7 8 8 8 9 9 7 7 7 6 6 6 5 6 5 5 4 4 3 3 4 5 5 6 7 7 6 7 7 6 4 6 6 7 6 8 8
6 3 5 3 3 0 1 4 3 5 7 8 12 11 16 11 8 9 4 11 23 20 19 17 16 13 10 9 10 11 11 10 10 11 9 10 9 8 9 9 7 6 7 7 6 7 8 8 9 10 8 7 7 6 6 6 6 6 6 5 7 7 8 7 7 7 7 7 7 7 6 5 6 5 6 6 6 4 3 3 4 5 6 6 7 6 6 6 6 5 6 7 8 8 7 7 7
10 7 3 8 3 4 5 2 5 7 10 6 11 9 7 5 3 6 10 12 10 17 16 18 18 15 13 12 12 10 10 10 10 9 9 8 8 7 9 9 7 7 6 4 5 7 6 6 7 7 6 6 6 6 6 5 6 7 6 6 7 7 7 6 6 6 6 6 6 7 7 7 6 6 6 6 7 4 2 4 5 5 6 6 6 6 6 6 6 5 6 6 6 8 8 8 8
14 13 8 9 6 7 6 7 2 3 3 3 12 8 3 0 0 1 15 16 9 8 10 15 16 16 15 13 12 11 9 10 9 9 9 9 7 6 8 10 8 5 3 3 4 5 5 5 5 6 3 3 4 5 5 5 5 5 5 5 5 5 4 4 4 5 5 5 6 6 6 5 5 6 6 6 5 6 5 5 5 6 6 6 6 6 5 5 6 6 5 6 7 8 6 8 9
15 9 8 6 5 4 5 4 10 9 6 1 2 10 2 4 1 2 9 11 11 10 11 12 13 14 14 12 12 12 11 9 9 9 9 10 8 7 8 8 7 4 3 3 3 5 5 4 3 3 3 2 3 3 3 4 3 4 5 4 4 3 4 4 4 4 5 6 6 6 6 6 6 7 7 6 6 6 6 6 5 6 6 6 5 6 6 6 6 6 6 6 5 5 8 8 8
7 4 7 5 9 7 5 6 7 3 2 3 6 2 3 2 1 9 11 13 13 13 14 15 14 13 13 13 12 11 10 9 8 9 9 8 8 7 7 7 5 3 2 3 7 6 4 3 3 2 2 0 2 2 2 3 4 3 4 4 4 3 3 4 5 5 5 5 5 6 6 7 7 7 8 8 8 7 7 6 6 6 6 6 6 6 6 6 5 6 6 5 7 6 7 8 8
7 9 11 12 6 6 2 1 0 5 8 2 0 4 3 1 6 7 13 13 11 12 13 12 13 13 12 11 11 10 10 9 8 8 8 9 7 6 6 7 5 4 3 4 4 4 4 4 3 2 1 0 1 1 1 2 3 4 4 4 4 4 4 4 4 4 6 6 6 6 6 7 7 8 8 8 9 9 8 7 7 7 7 7 6 6 6 6 6 6 6 7 8 7 6 8 8
5 9 10 4 3 4 4 3 0 1 6 2 2 7 7 8 3 3 12 14 10 11 11 12 11 11 12 10 10 10 11 10 10 10 9 8 8 8 7 6 5 4 5 6 6 4 4 3 3 2 1 0 0 1 2 3 4 4 5 5 6 6 5 6 5 4 5 5 6 7 7 8 8 8 8 8 9 10 10 10 8 7 6 6 6 6 6 6 6 6 7 7 8 7 7 6 7
8 11 7 8 5 7 2 4 4 3 4 2 2 7 7 5 8 9 14 16 12 12 11 12 12 11 11 11 11 10 10 10 9 9 9 7 7 8 7 6 4 5 6 6 5 4 2 1 1 2 3 1 1 2 3 5 6 6 6 7 7 7 6 7 6 5 5 6 7 7 8 8 8 10 10 10 10 10 9 10 10 10 8 7 6 6 6 6 6 6 6 7 7 7 8 8 7
6 6 9 6 5 4 5 7 4 7 4 5 5 9 4 2 6 13 15 16 17 14 12 12 13 12 12 11 10 10 9 9 9 8 7 7 7 7 6 5 7 7 6 5 4 3 3 3 4 5 7 7 6 6 5 6 6 7 7 8 8 7 7 6 7 6 7 8 8 9 9 9 9 9 9 10 10 11 10 11 10 10 12 10 8 7 7 6 6 6 6 7 7 8 9 9 8
6 4 4 6 4 2 5 1 5 6 7 6 7 6 4 2 9 10 12 12 14 14 12 10 11 11 11 11 10 9 9 8 8 8 8 7 6 6 6 7 7 5 5 5 5 5 3 5 8 9 9 7 6 5 6 6 7 7 8 8 8 8 8 7 7 8 9 9 9 9 9 9 8 9 10 11 11 11 10 11 11 11 14 13 13 13 13 11 8 7 6 7 8 8 8 7 6
5 7 6 7 9 3 9 6 2 4 7 6 7 5 1 2 2 11 12 11 13 12 13 12 11 11 11 10 11 10 9 8 8 6 5 6 7 7 9 8 5 7 7 7 4 5 5 6 6 8 8 6 6 7 6 7 7 7 7 7 7 7 8 8 8 9 10 9 9 9 9 9 9 9 10 11 11 10 10 11 10 10 11 9 10 9 10 9 10 12 11 8 8 8 8 8 7
Wind_Direction
331 341 329 323 302 336 39 8 27 308 80 225 240 235 256 126 241 292 276 265 272 359 343 35 71 185 107 129 110 93 30 139 203 142 216 167 87 118 123 129 132 128 133 136 137 132 128 126 125 124 124 123 121 119 115 115 117 118 119 117 114 112 112 112 110 108 108 106 104 106 100 97 99 101 103 103 103 102 100 101 102 101 99 99 99 97 97 96 94 86 84 83 89 86 88 90 88
347 350 346 335 317 43 353 114 106 346 35 323 248 103 253 19 346 285 278 213 185 121 100 83 79 88 101 117 121 87 44 30 73 104 97 107 103 105 129 133 139 132 131 128 126 123 127 126 126 127 126 125 124 121 120 122 123 123 123 120 116 114 112 112 112 111 112 110 109 105 97 97 101 104 105 102 97 95 98 102 102 102 101 99 98 97 94 90 86 84 83 84 81 77 69 74 77
1 9 358 7 23 78 256 42 249 181 164 238 259 219 311 348 272 279 268 104 124 125 102 101 108 98 121 125 45 70 92 83 91 90 100 127 112 133 132 118 120 121 123 124 128 126 127 131 130 129 128 128 126 126 128 128 127 125 123 121 116 113 110 110 112 113 113 112 111 108 103 102 103 105 105 102 98 98 95 98 101 99 97 94 93 94 94 93 91 88 86 84 81 73 59 57 61
56 56 84 42 342 17 70 20 108 143 195 217 286 256 228 225 247 259 262 177 142 141 124 99 55 295 95 65 97 84 104 108 101 127 130 166 151 136 126 120 117 116 119 124 124 125 132 133 131 130 129 129 130 133 133 129 126 122 121 119 116 110 102 101 110 112 111 111 109 107 106 108 108 107 106 103 99 94 97 99 99 93 87 86 87 89 92 96 98 98 96 92 86 78 61 53 59
50 333 98 70 110 354 100 203 175 131 226 199 212 271 212 194 233 242 249 207 193 140 114 122 89 32 76 102 95 97 135 112 121 126 116 103 125 130 128 128 126 120 121 122 120 122 131 132 130 129 132 133 134 134 130 126 123 120 119 120 116 109 102 93 101 109 108 109 107 106 107 107 108 108 107 104 98 102 99 92 87 89 85 81 82 86 90 91 95 97 93 94 95 81 61 52 54
44 56 338 93 180 201 45 316 268 223 233 167 233 205 251 241 250 262 282 70 137 127 122 63 126 155 45 12 15 99 137 133 150 91 127 139 133 131 131 127 120 114 116 112 114 122 129 130 129 130 133 133 132 128 125 124 121 118 117 119 117 111 107 98 101 105 104 103 103 105 108 108 108 108 109 107 104 99 96 95 91 89 90 91 95 99 104 104 100 96 99 92 83 72 57 51 56
11 26 18 27 335 76 169 186 238 235 258 181 240 254 293 295 289 305 281 76 12 54 100 114 118 99 74 87 45 39 66 120 119 140 134 136 132 133 127 118 112 112 112 116 117 125 130 129 127 129 129 130 128 125 124 122 118 115 113 114 117 116 117 112 108 111 101 94 91 104 110 112 110 109 110 109 105 100 93 90 90 87 86 88 87 92 95 93 88 85 84 83 82 71 61 56 55
167 99 272 111 249 65 256 234 244 180 265 183 241 274 265 270 283 290 258 127 177 121 133 115 100 88 46 26 107 27 73 51 108 117 120 126 132 126 119 119 112 116 122 124 124 128 132 128 128 127 129 128 128 126 125 123 118 115 114 115 118 121 125 122 114 113 99 88 83 92 109 115 112 109 112 110 105 100 97 93 92 90 88 88 88 87 85 85 86 87 83 83 79 71 60 53 50
9 83 303 70 296 347 312 251 252 224 266 269 268 249 270 261 271 272 289 243 96 123 135 144 111 86 119 85 65 94 84 100 106 117 121 125 128 125 123 124 123 128 130 130 132 132 131 132 131 131 131 131 131 129 129 126 121 120 118 118 119 124 131 125 114 106 93 87 84 92 106 112 114 113 114 111 106 100 97 94 93 93 93 94 95 94 93 94 93 88 82 76 74 66 59 53 46
17 109 252 153 135 231 261 274 241 241 248 254 253 259 255 269 260 255 249 90 129 104 34 329 95 111 121 97 103 83 114 116 113 96 107 124 124 116 116 124 127 128 130 134 138 137 138 138 134 133 133 135 135 135 132 127 125 124 124 124 126 131 136 122 108 101 95 89 84 80 89 100 111 117 118 116 109 103 97 93 91 91 95 96 95 97 94 88 85 77 69 64 58 54 47 44 42
326 346 170 117 141 229 237 260 264 294 277 282 266 247 242 246 249 254 241 118 140 126 126 98 80 116 104 93 66 86 113 114 107 110 117 114 111 113 112 116 122 130 133 139 143 142 140 138 139 137 138 137 137 131 126 125 126 127 129 131 133 133 131 116 109 102 98 98 93 91 93 100 112 122 124 121 116 106 97 93 91 91 92 93 92 87 87 83 74 65 53 47 50 49 43 40 36
21 290 90 141 203 182 241 221 267 272 276 279 273 252 228 230 231 230 218 120 134 145 156 127 143 118 88 112 115 116 107 89 96 114 112 108 106 110 115 121 124 129 135 141 140 135 133 139 140 143 139 137 133 129 125 129 133 133 134 137 131 120 114 109 107 106 106 104 98 94 94 101 109 114 114 114 113 108 97 93 92 91 90 89 88 91 85 76 64 58 43 25 36 34 34 26 32
152 229 84 102 234 181 251 272 265 279 301 271 252 263 211 233 207 196 195 140 151 141 142 137 135 111 122 125 128 116 103 91 109 114 112 111 112 113 114 120 127 133 134 130 126 126 126 128 138 140 139 136 127 125 126 130 131 128 127 127 117 116 115 112 113 112 108 110 110 104 103 104 102 102 106 109 112 109 102 91 91 90 87 89 93 88 86 81 63 45 30 12 11 25 12 11 19
152 180 130 233 195 228 236 240 278 315 285 267 283 279 235 181 204 172 139 99 168 154 132 138 124 109 107 119 126 133 115 116 112 107 107 107 113 115 118 124 128 127 122 119 119 117 117 123 125 127 128 116 119 123 125 124 125 120 115 112 110 110 110 109 106 111 115 120 122 121 116 110 101 94 90 95 94 87 94 92 89 89 88 88 88 98 95 83 66 39 6 357 353 356 349 352 15
204 174 119 180 285 329 220 223 198 204 272 278 268 271 268 288 150 108 119 106 68 107 115 59 136 105 188 147 166 161 137 130 115 110 106 109 113 116 120 120 115 110 110 107 109 118 123 120 115 102 99 95 93 95 101 126 124 122 116 116 115 115 116 119 118 119 125 130 132 134 132 118 110 101 91 92 91 93 97 97 91 90 91 90 90 93 100 97 69 38 351 332 334 334 327 339 332
195 140 169 209 253 218 264 210 225 245 265 288 273 298 56 359 15 92 256 116 122 101 106 163 243 162 166 167 152 144 132 123 117 111 109 109 110 109 112 109 105 105 108 114 117 121 123 117 102 98 95 92 87 87 100 118 129 134 122 125 120 119 122 124 129 133 138 142 143 140 131 114 106 112 112 110 111 104 112 107 99 92 90 94 92 96 94 100 106 0 329 322 315 313 314 319 318
233 173 252 226 265 228 252 179 192 245 270 282 296 335 109 69 41 58 46 107 109 74 57 12 37 107 137 136 130 126 124 120 116 111 108 111 116 116 109 105 109 110 127 129 123 118 115 109 99 99 104 107 103 102 111 124 135 138 133 133 135 125 126 133 141 147 146 149 142 133 112 102 117 125 139 147 146 140 136 129 120 114 94 91 96 101 117 122 131 193 299 300 304 302 306 309 313
171 222 198 240 220 244 196 220 245 288 308 297 336 331 123 111 91 113 76 70 89 79 68 59 72 81 106 114 114 118 126 120 121 118 122 124 132 129 122 125 131 141 140 126 119 128 125 119 119 121 123 120 119 119 125 128 133 127 125 123 128 133 138 147 149 154 150 146 149 137 139 153 171 172 181 168 162 157 147 145 139 122 118 107 105 111 134 145 171 189 257 277 288 293 298 316 325
182 212 166 233 212 227 112 258 285 292 289 310 296 333 229 150 133 212 94 111 100 88 81 91 90 98 103 110 117 125 126 124 123 125 137 143 142 140 135 137 139 135 132 130 140 140 132 132 133 134 132 130 126 128 130 134 134 134 128 131 139 140 144 149 157 153 154 166 153 145 112 77 210 200 183 189 186 167 163 155 149 143 133 136 130 137 122 173 213 211 249 271 276 287 306 318 314
217 174 223 236 235 279 253 260 286 301 289 298 296 313 65 32 89 167 115 127 113 119 121 108 117 122 123 126 127 128 126 125 127 134 140 145 145 141 140 138 137 138 132 141 143 135 136 137 140 141 140 139 133 137 134 142 147 138 141 140 144 149 153 149 161 171 191 178 149 125 117 123 87 323 271 221 191 186 175 165 157 152 150 146 159 130 88 228 236 251 255 275 291 309 313 308 313
257 163 224 232 240 267 275 286 255 285 300 290 295 306 19 336 89 129 135 102 112 139 146 144 145 140 140 140 136 133 128 128 129 135 142 144 136 128 137 142 141 130 130 131 130 140 144 141 143 148 144 138 133 136 143 153 155 147 149 151 153 151 151 147 125 132 147 145 143 134 144 157 169 180 309 331 276 172 180 157 149 134 130 152 155 148 138 162 318 315 318 302 299 300 310 298 306
316 217 233 228 267 281 260 258 299 288 287 302 287 41 309 296 69 132 139 133 170 167 170 145 144 144 144 143 141 135 134 134 136 140 144 145 144 146 136 103 92 112 126 125 129 129 142 150 149 148 142 139 131 136 148 160 153 157 162 157 144 148 143 153 170 163 171 153 140 124 123 145 184 184 134 293 336 186 182 193 169 152 149 177 174 161 155 177 209 199 199 260 274 292 278 279 274
244 275 271 241 231 239 281 264 260 268 300 333 321 302 299 55 72 250 146 149 170 141 147 142 138 139 139 136 137 138 140 140 142 146 147 143 147 148 138 128 134 134 125 119 124 127 134 140 139 135 131 134 128 129 137 144 152 149 131 133 139 150 145 145 162 181 194 163 138 140 145 183 194 196 208 256 274 221 208 206 187 173 169 180 196 165 174 189 200 199 198 220 250 269 271 270 268
218 252 252 255 230 237 251 265 275 290 237 294 251 330 61 69 64 290 90 80 107 109 122 123 122 128 134 133 138 141 144 144 148 148 146 146 150 154 149 137 126 114 111 120 120 126 132 133 128 118 126 128 128 130 121 114 117 132 139 138 140 148 136 145 181 223 232 194 176 163 158 174 193 197 209 232 225 278 240 204 182 189 180 191 194 180 184 195 207 212 208 205 219 243 257 262 271
223 248 247 248 226 225 237 251 277 268 269 215 9 6 38 102 123 96 89 114 113 117 119 121 124 127 128 130 138 140 135 135 135 131 114 113 125 123 108 107 115 119 118 126 128 127 125 121 117 119 123 122 123 125 118 126 139 134 129 146 152 159 142 160 187 215 251 236 214 171 164 172 198 205 202 218 216 208 204 191 142 177 212 218 189 203 193 196 207 213 220 217 201 223 237 253 258
220 233 245 245 242 235 230 241 226 259 272 358 23 315 69 92 87 69 121 114 119 119 121 125 127 129 132 130 133 132 126 124 125 127 125 113 122 121 119 120 122 124 134 134 136 127 113 108 113 121 125 122 124 124 140 150 175 163 164 181 175 164 175 187 183 208 219 227 228 200 190 171 187 194 208 214 212 231 224 202 191 175 185 230 221 208 196 189 207 209 227 230 219 222 235 242 242
213 223 225 230 239 245 244 224 229 245 242 135 282 281 109 173 102 93 94 126 125 122 124 128 130 128 125 127 131 125 121 126 127 119 108 113 118 122 117 112 119 121 128 136 135 119 114 110 109 119 121 120 128 131 144 158 185 198 189 185 193 185 169 181 207 217 216 220 220 201 211 198 193 216 206 206 208 207 225 212 223 245 231 232 225 225 185 195 198 206 211 220 226 229 235 240 236
268 266 302 278 269 261 254 246 242 99 293 174 181 277 145 173 112 145 155 143 136 131 132 132 127 121 121 123 123 120 115 119 120 125 128 132 137 134 123 122 121 128 137 150 131 114 115 120 128 127 126 131 131 137 144 162 185 198 213 203 203 195 158 179 211 225 220 228 222 204 207 215 205 213 207 206 200 194 208 211 215 225 250 240 234 240 199 181 210 229 222 218 229 226 239 254 271
243 244 266 278 274 267 249 221 239 171 231 214 153 39 311 44 146 148 151 148 144 132 130 126 122 120 120 119 115 114 116 113 98 77 79 44 31 22 81 111 134 139 148 151 139 131 134 137 131 140 140 132 140 149 160 176 190 198 206 226 235 205 149 156 204 217 208 218 201 193 217 222 223 211 221 222 216 211 206 216 229 229 232 240 254 256 234 181 188 263 278 304 290 298 336 14 26
265 236 199 259 284 260 251 228 174 171 231 149 122 202 266 289 154 149 150 144 139 123 127 129 125 123 122 119 115 106 85 76 64 85 72 98 128 149 193 140 142 146 154 156 143 139 141 138 142 143 138 140 151 155 156 175 196 201 211 247 250 248 143 201 207 199 209 215 196 208 219 231 224 220 214 226 217 212 206 212 229 236 226 217 221 250 269 253 232 238 277 16 55 88 155 207 34
272 254 158 210 173 259 270 200 163 183 213 144 124 180 265 274 184 156 152 146 142 133 134 133 128 125 122 121 118 107 98 110 120 118 141 153 146 165 165 154 144 145 149 152 146 141 145 150 154 138 145 152 154 158 167 184 192 189 210 242 253 239 222 241 256 217 203 214 194 212 216 222 224 220 223 225 231 220 229 230 228 228 217 221 216 211 223 250 236 235 223 263 254 257 170 107 109
309 341 277 313 169 275 282 248 148 179 265 148 121 203 233 223 181 165 160 146 134 135 140 134 124 118 117 112 106 103 104 112 121 101 78 78 104 137 254 112 118 124 137 136 134 137 142 147 148 132 146 152 140 155 181 188 178 193 203 223 242 229 218 261 267 233 205 203 199 203 207 212 214 225 229 230 241 229 230 241 245 246 210 212 230 229 212 224 230 244 228 174 236 266 253 198 161
224 182 269 236 139 236 307 260 178 186 175 196 160 214 256 275 192 170 156 141 139 139 139 135 123 118 113 111 105 106 111 100 79 92 103 112 127 129 130 86 116 135 138 141 141 135 138 142 138 139 147 153 152 162 169 184 181 197 204 224 228 223 222 245 252 254 237 212 202 205 206 211 212 214 219 217 224 231 228 235 245 246 252 223 202 199 208 207 203 220 218 186 188 236 222 219 202
283 48 209 210 164 226 229 296 292 211 162 230 218 202 212 215 167 179 156 144 142 140 141 136 127 124 120 115 112 120 116 109 107 113 119 133 127 132 124 104 102 129 141 135 136 137 140 142 137 144 142 154 162 174 189 189 194 173 192 199 213 221 229 223 236 242 254 248 222 220 206 214 219 213 215 210 218 227 227 229 241 237 279 289 278 256 234 188 205 197 215 203 199 208 223 215 223
206 267 231 281 251 185 196 185 259 158 204 196 222 199 241 90 169 169 161 149 146 147 148 144 136 130 124 119 126 123 116 111 118 111 108 100 86 68 75 70 73 110 103 107 110 115 124 133 140 151 147 150 161 159 153 131 160 122 58 216 295 280 270 246 227 227 231 227 226 226 216 221 226 220 214 207 208 223 225 233 222 229 204 213 252 252 239 209 199 198 210 209 202 207 191 204 217
198 182 202 191 197 228 215 225 258 169 196 220 182 199 224 133 101 154 151 150 146 143 131 128 127 124 122 126 125 118 117 117 129 113 102 92 92 96 85 72 69 71 81 92 95 105 112 113 115 103 97 103 102 91 89 83 62 339 260 309 293 269 262 257 231 222 214 210 215 209 215 214 221 221 219 212 215 221 219 217 210 208 230 213 208 220 218 206 201 195 207 205 206 208 200 188 198
204 190 198 228 206 240 248 247 238 190 159 219 197 216 221 166 146 158 156 141 132 136 137 134 134 129 128 125 119 120 120 131 143 117 111 107 101 94 86 85 93 80 75 88 103 104 101 113 113 104 89 86 99 103 95 125 146 294 300 238 243 245 238 233 242 231 223 221 210 205 205 208 209 220 220 210 222 230 228 230 219 217 210 218 219 228 225 218 207 201 201 198 201 197 200 201 202
233 230 211 244 213 227 220 230 218 212 172 238 199 206 232 204 154 150 138 143 149 147 140 136 133 129 125 123 124 122 124 120 116 113 112 107 102 95 93 90 93 99 77 78 89 100 97 92 98 105 88 93 113 144 189 179 191 182 183 218 224 242 240 233 245 242 226 229 225 220 217 212 213 219 223 219 228 228 236 233 230 228 216 223 233 240 235 225 212 207 191 210 205 197 197 185 194
237 217 217 229 249 228 240 229 211 215 190 232 160 173 228 334 149 145 145 156 157 158 150 148 138 133 130 130 126 125 122 120 121 121 118 116 115 109 94 87 76 84 88 77 58 86 84 86 96 101 107 127 148 153 141 203 241 245 210 245 202 256 250 241 233 241 230 220 227 226 218 212 207 212 214 213 223 227 232 236 238 233 220 213 224 233 234 232 208 213 199 202 205 211 188 181 178
232 225 195 219 228 162 253 284 225 217 193 213 168 160 66 60 115 105 103 130 107 84 93 101 119 133 135 135 132 129 128 128 129 130 121 118 114 109 101 94 94 94 83 69 53 71 68 75 73 62 39 21 14 214 206 222 222 265 283 258 270 224 258 265 254 271 264 268 257 233 225 210 202 204 197 203 213 217 219 228 240 240 244 225 228 231 232 232 218 213 207 214 197 207 202 216 185
235 214 205 212 231 221 154 245 220 204 227 174 94 81 41 104 127 61 57 78 98 92 89 89 97 110 118 118 120 127 130 130 128 122 119 113 102 94 89 82 77 74 78 89 93 62 67 77 100 118 99 340 336 310 276 252 248 296 318 328 347 343 352 348 343 313 276 231 233 224 230 210 204 207 202 200 204 211 216 226 235 229 236 238 225 236 232 238 232 240 217 202 201 214 223 206 209
241 233 204 216 222 215 224 271 286 227 236 206 143 66 72 314 152 134 129 98 86 102 105 109 117 120 121 122 121 120 115 115 120 120 114 111 108 97 76 68 62 47 39 35 47 50 52 50 53 51 49 41 26 1 341 341 325 293 1 4 338 351 321 329 328 310 317 319 299 283 256 200 206 212 210 210 203 215 225 226 232 227 227 232 230 234 252 262 235 237 223 210 222 220 214 195 192
212 237 187 215 223 205 210 295 101 196 206 225 167 142 93 312 165 140 128 114 118 111 106 115 119 120 115 116 116 119 118 109 102 104 107 107 108 97 82 76 67 59 42 47 49 50 56 59 60 62 56 48 34 25 27 32 34 24 3 331 326 318 336 322 327 324 314 307 309 318 312 320 281 247 241 222 226 221 228 232 231 232 223 243 238 228 226 240 236 236 230 218 222 224 204 212 206
230 180 151 207 212 209 214 221 186 241 272 24 144 126 141 167 255 179 138 124 128 121 122 118 113 111 105 94 104 112 116 113 111 106 105 104 101 101 92 78 72 56 43 52 51 47 48 51 59 56 52 46 34 31 34 28 37 24 26 30 35 24 16 3 355 346 352 347 351 356 346 329 335 344 338 326 315 283 251 244 243 234 222 218 231 244 231 225 230 218 228 238 236 232 213 218 217
221 203 163 189 168 186 216 203 228 229 158 272 149 127 91 173 170 165 144 130 135 139 135 128 119 112 108 106 104 105 109 111 106 106 106 107 99 93 96 89 83 66 53 58 51 49 46 51 61 62 58 49 39 41 45 35 31 26 31 31 34 25 14 7 348 3 9 3 15 3 10 5 4 342 274 278 270 265 255 236 237 245 226 231 242 252 250 236 228 224 220 233 223 226 224 227 218
226 239 157 185 138 179 182 211 206 215 142 225 191 183 114 194 199 171 192 144 151 147 136 127 125 124 121 116 112 107 103 106 104 99 99 95 96 96 97 97 85 74 69 63 62 63 52 48 57 63 55 54 47 42 46 47 37 32 35 31 30 21 13 4 10 5 360 359 13 6 354 3 357 346 313 287 288 284 280 265 242 239 232 246 242 246 256 255 240 231 214 233 225 223 231 251 239
34 213 242 239 117 185 229 206 187 124 234 220 204 195 134 179 216 186 178 177 150 138 128 129 125 121 118 118 117 116 111 105 107 105 101 98 95 102 97 88 86 71 65 63 47 44 35 35 44 48 37 39 39 42 42 44 43 41 41 32 31 27 16 16 10 2 353 359 6 3 354 341 337 325 317 313 307 295 289 286 278 247 227 234 247 248 249 252 254 246 225 232 243 227 221 226 225
217 225 202 199 335 61 267 250 114 176 245 229 202 194 148 146 214 223 245 157 154 151 149 147 141 133 126 123 119 117 113 109 108 107 104 104 100 90 95 88 78 79 61 48 41 43 46 55 58 52 36 32 31 26 32 41 47 45 44 37 36 31 23 18 9 354 351 347 354 355 342 339 337 325 317 315 313 318 317 311 289 262 257 255 251 248 252 254 248 217 215 226 238 242 235 226 226
216 223 152 166 220 144 238 231 221 199 204 238 189 175 157 181 225 185 170 175 171 161 149 147 141 134 129 126 123 117 116 114 110 108 110 101 99 108 102 92 86 73 77 67 64 68 73 73 71 68 38 31 33 34 33 27 43 42 35 32 34 27 22 14 2 358 356 345 353 347 345 343 335 335 328 319 313 305 283 290 288 273 260 255 264 271 265 261 257 230 211 206 220 236 231 228 230
208 208 176 171 160 167 197 208 215 267 256 249 164 196 166 138 16 301 168 177 152 130 113 126 132 133 130 127 122 118 112 113 113 115 113 107 106 110 104 104 98 95 99 95 75 69 73 66 62 77 52 22 47 47 43 38 32 29 22 29 34 25 16 4 1 3 351 353 356 344 344 343 334 328 318 316 302 300 300 292 285 273 264 265 261 258 261 266 269 263 246 228 220 228 233 233 234
207 207 160 171 140 164 186 187 192 202 207 204 117 173 255 125 250 74 134 122 103 111 115 115 117 120 119 118 115 113 115 113 119 119 117 117 114 107 100 98 101 109 116 102 79 75 84 86 85 82 77 66 85 80 70 66 52 36 27 23 33 28 21 12 16 8 1 5 356 352 352 349 351 340 334 318 318 310 301 302 285 272 278 277 273 268 266 264 261 262 260 255 248 234 228 227 234
214 172 100 125 207 139 184 201 150 166 122 84 -0 59 347 116 21 90 101 102 102 113 118 120 119 119 120 120 120 123 122 121 121 120 116 114 113 109 105 98 92 88 97 77 83 98 107 111 107 116 130 78 52 63 82 95 76 68 58 46 37 36 23 23 19 9 9 5 355 357 352 353 353 348 345 343 333 326 316 308 295 281 280 279 272 267 266 262 257 256 258 250 250 244 248 236 229
192 159 196 209 160 112 108 88 19 94 86 4 309 114 93 105 44 89 110 107 109 110 115 114 117 120 120 120 124 125 123 120 123 119 115 115 113 110 105 100 92 102 110 97 107 132 137 129 126 145 191 288 6 21 8 17 42 48 32 40 40 32 26 35 25 20 13 6 359 360 359 353 356 3 351 350 345 340 333 314 307 305 300 293 290 277 267 262 258 254 258 258 258 248 234 242 238
142 192 210 97 145 124 135 198 247 99 147 162 226 164 166 155 173 158 118 113 124 117 127 124 124 127 122 123 122 123 120 116 112 109 111 116 120 112 100 93 103 104 89 99 123 139 132 148 159 172 242 296 319 22 25 18 28 35 29 31 31 31 27 18 12 18 17 8 1 2 2 1 3 357 353 349 347 350 348 343 328 311 299 299 293 288 278 272 265 256 254 256 257 254 242 230 228
191 210 133 153 166 196 294 118 192 148 133 151 212 183 180 203 144 154 140 135 141 140 139 134 136 134 123 121 119 116 113 109 107 111 112 116 113 113 116 120 104 83 92 111 119 111 106 107 138 98 72 62 62 51 49 42 48 50 47 42 36 33 27 24 14 7 12 14 14 9 6 2 360 3 357 354 351 350 351 350 349 340 325 310 306 296 286 278 267 259 252 260 261 254 249 244 231
215 91 156 164 130 167 153 196 168 108 151 137 141 173 220 199 156 167 155 152 150 144 147 144 141 137 129 127 125 121 116 114 112 114 119 120 120 120 120 109 99 103 105 106 102 95 72 48 57 59 61 64 68 63 53 53 50 58 53 46 42 36 29 25 18 16 22 19 18 13 11 5 7 1 358 358 357 355 351 355 351 350 352 342 326 315 305 288 276 261 262 264 266 255 247 243 244
193 150 196 181 196 219 135 88 139 150 156 162 138 193 237 240 158 168 157 151 144 144 139 135 133 133 127 127 126 124 121 118 123 128 123 122 110 92 85 95 106 99 90 81 85 84 67 55 57 63 75 72 67 61 60 59 60 57 57 53 45 38 31 24 22 29 31 25 17 15 10 10 6 7 4 4 360 354 355 353 351 9 21 14 9 5 354 338 310 286 267 266 266 261 261 263 252
152 158 194 190 162 124 172 247 23 99 117 156 151 194 137 242 218 156 151 148 140 140 131 132 131 130 127 125 122 125 128 132 131 125 129 116 96 95 99 95 93 94 77 79 72 72 62 63 68 73 71 66 73 67 72 70 65 61 58 57 53 46 40 35 37 36 37 28 22 18 13 9 11 11 12 6 359 358 1 354 356 19 16 10 4 3 356 358 355 347 333 298 262 253 256 261 253